Year,Month,Day,Hour,Minute,Value (Times are PST for temperature in C)
2015,11,17,00,00,7.50
2015,11,17,00,01,7.40
2015,11,17,00,02,7.40
2015,11,17,00,03,7.40
2015,11,17,00,04,7.40
2015,11,17,00,05,7.40
2015,11,17,00,06,7.40
2015,11,17,00,07,7.40
2015,11,17,00,08,7.40
2015,11,17,00,09,7.40
2015,11,17,00,10,7.40
2015,11,17,00,11,7.40
2015,11,17,00,12,7.40
2015,11,17,00,13,7.40
2015,11,17,00,14,7.40
2015,11,17,00,15,7.40
2015,11,17,00,16,7.40
2015,11,17,00,17,7.40
2015,11,17,00,18,7.40
2015,11,17,00,19,7.40
2015,11,17,00,20,7.40
2015,11,17,00,21,7.40
2015,11,17,00,22,7.40
2015,11,17,00,23,7.40
2015,11,17,00,24,7.40
2015,11,17,00,25,7.40
2015,11,17,00,26,7.50
2015,11,17,00,27,7.50
2015,11,17,00,28,7.50
2015,11,17,00,29,7.50
2015,11,17,00,30,7.50
2015,11,17,00,31,7.50
2015,11,17,00,32,7.50
2015,11,17,00,33,7.50
2015,11,17,00,34,7.50
2015,11,17,00,35,7.50
2015,11,17,00,36,7.60
2015,11,17,00,37,7.60
2015,11,17,00,38,7.60
2015,11,17,00,39,7.70
2015,11,17,00,40,7.70
2015,11,17,00,41,7.70
2015,11,17,00,42,7.70
2015,11,17,00,43,7.80
2015,11,17,00,44,7.80
2015,11,17,00,45,7.80
2015,11,17,00,46,7.80
2015,11,17,00,47,7.90
2015,11,17,00,48,7.90
2015,11,17,00,49,8.00
2015,11,17,00,50,8.00
2015,11,17,00,51,8.10
2015,11,17,00,52,8.10
2015,11,17,00,53,8.20
2015,11,17,00,54,8.30
2015,11,17,00,55,8.30
2015,11,17,00,56,8.30
2015,11,17,00,57,8.40
2015,11,17,00,58,8.40
2015,11,17,00,59,8.50
2015,11,17,01,00,8.50
2015,11,17,01,01,8.50
2015,11,17,01,02,8.60
2015,11,17,01,03,8.60
2015,11,17,01,04,8.70
2015,11,17,01,05,8.70
2015,11,17,01,06,8.70
2015,11,17,01,07,8.80
2015,11,17,01,08,8.80
2015,11,17,01,09,8.80
2015,11,17,01,10,8.80
2015,11,17,01,11,8.80
2015,11,17,01,12,8.80
2015,11,17,01,13,8.80
2015,11,17,01,14,8.80
2015,11,17,01,15,8.80
2015,11,17,01,16,8.80
2015,11,17,01,17,8.80
2015,11,17,01,18,8.80
2015,11,17,01,19,8.80
2015,11,17,01,20,8.80
2015,11,17,01,21,8.80
2015,11,17,01,22,8.80
2015,11,17,01,23,8.80
2015,11,17,01,24,8.80
2015,11,17,01,25,8.80
2015,11,17,01,26,8.80
2015,11,17,01,27,8.80
2015,11,17,01,28,8.80
2015,11,17,01,29,8.80
2015,11,17,01,30,8.80
2015,11,17,01,31,8.80
2015,11,17,01,32,8.80
2015,11,17,01,33,8.80
2015,11,17,01,34,8.80
2015,11,17,01,35,8.80
2015,11,17,01,36,8.80
2015,11,17,01,37,8.80
2015,11,17,01,38,8.80
2015,11,17,01,39,8.80
2015,11,17,01,40,8.70
2015,11,17,01,41,8.70
2015,11,17,01,42,8.70
2015,11,17,01,43,8.70
2015,11,17,01,44,8.70
2015,11,17,01,45,8.70
2015,11,17,01,46,8.70
2015,11,17,01,47,8.60
2015,11,17,01,48,8.60
2015,11,17,01,49,8.60
2015,11,17,01,50,8.60
2015,11,17,01,51,8.60
2015,11,17,01,52,8.60
2015,11,17,01,53,8.60
2015,11,17,01,54,8.60
2015,11,17,01,55,8.60
2015,11,17,01,56,8.60
2015,11,17,01,57,8.60
2015,11,17,01,58,8.60
2015,11,17,01,59,8.60
2015,11,17,02,00,8.60
2015,11,17,02,01,8.60
2015,11,17,02,02,8.60
2015,11,17,02,03,8.60
2015,11,17,02,04,8.60
2015,11,17,02,05,8.60
2015,11,17,02,06,8.60
2015,11,17,02,07,8.70
2015,11,17,02,08,8.70
2015,11,17,02,09,8.70
2015,11,17,02,10,8.80
2015,11,17,02,11,8.80
2015,11,17,02,12,8.80
2015,11,17,02,13,8.80
2015,11,17,02,14,8.80
2015,11,17,02,15,8.90
2015,11,17,02,16,8.90
2015,11,17,02,17,8.90
2015,11,17,02,18,8.90
2015,11,17,02,19,8.90
2015,11,17,02,20,8.90
2015,11,17,02,21,8.90
2015,11,17,02,22,8.90
2015,11,17,02,23,8.90
2015,11,17,02,24,8.90
2015,11,17,02,25,8.90
2015,11,17,02,26,8.90
2015,11,17,02,27,8.90
2015,11,17,02,28,8.90
2015,11,17,02,29,8.90
2015,11,17,02,30,8.90
2015,11,17,02,31,8.90
2015,11,17,02,32,8.90
2015,11,17,02,33,8.90
2015,11,17,02,34,8.90
2015,11,17,02,35,8.90
2015,11,17,02,36,8.90
2015,11,17,02,37,8.90
2015,11,17,02,38,8.90
2015,11,17,02,39,8.90
2015,11,17,02,40,8.90
2015,11,17,02,41,8.90
2015,11,17,02,42,8.90
2015,11,17,02,43,8.90
2015,11,17,02,44,8.90
2015,11,17,02,45,8.90
2015,11,17,02,46,8.90
2015,11,17,02,47,8.90
2015,11,17,02,48,8.90
2015,11,17,02,49,8.90
2015,11,17,02,50,8.90
2015,11,17,02,51,8.90
2015,11,17,02,52,8.90
2015,11,17,02,53,8.90
2015,11,17,02,54,8.90
2015,11,17,02,55,8.90
2015,11,17,02,56,8.90
2015,11,17,02,57,8.90
2015,11,17,02,58,8.90
2015,11,17,02,59,8.90
2015,11,17,03,00,8.90
2015,11,17,03,01,8.90
2015,11,17,03,02,8.90
2015,11,17,03,03,8.80
2015,11,17,03,04,8.80
2015,11,17,03,05,8.80
2015,11,17,03,06,8.80
2015,11,17,03,07,8.80
2015,11,17,03,08,8.80
2015,11,17,03,09,8.80
2015,11,17,03,10,8.80
2015,11,17,03,11,8.80
2015,11,17,03,12,8.80
2015,11,17,03,13,8.80
2015,11,17,03,14,8.70
2015,11,17,03,15,8.70
2015,11,17,03,16,8.70
2015,11,17,03,17,8.70
2015,11,17,03,18,8.70
2015,11,17,03,19,8.70
2015,11,17,03,20,8.70
2015,11,17,03,21,8.70
2015,11,17,03,22,8.70
2015,11,17,03,23,8.70
2015,11,17,03,24,8.70
2015,11,17,03,25,8.60
2015,11,17,03,26,8.60
2015,11,17,03,27,8.60
2015,11,17,03,28,8.60
2015,11,17,03,29,8.60
2015,11,17,03,30,8.60
2015,11,17,03,31,8.60
2015,11,17,03,32,8.50
2015,11,17,03,33,8.50
2015,11,17,03,34,8.40
2015,11,17,03,35,8.40
2015,11,17,03,36,8.40
2015,11,17,03,37,8.40
2015,11,17,03,38,8.40
2015,11,17,03,39,8.40
2015,11,17,03,40,8.30
2015,11,17,03,41,8.30
2015,11,17,03,42,8.30
2015,11,17,03,43,8.30
2015,11,17,03,44,8.30
2015,11,17,03,45,8.30
2015,11,17,03,46,8.30
2015,11,17,03,47,8.20
2015,11,17,03,48,8.20
2015,11,17,03,49,8.20
2015,11,17,03,50,8.20
2015,11,17,03,51,8.20
2015,11,17,03,52,8.20
2015,11,17,03,53,8.20
2015,11,17,03,54,8.20
2015,11,17,03,55,8.20
2015,11,17,03,56,8.20
2015,11,17,03,57,8.20
2015,11,17,03,58,8.20
2015,11,17,03,59,8.20
2015,11,17,04,00,8.20
2015,11,17,04,01,8.20
2015,11,17,04,02,8.20
2015,11,17,04,03,8.20
2015,11,17,04,04,8.20
2015,11,17,04,05,8.20
2015,11,17,04,06,8.20
2015,11,17,04,07,8.20
2015,11,17,04,08,8.20
2015,11,17,04,09,8.20
2015,11,17,04,10,8.20
2015,11,17,04,11,8.20
2015,11,17,04,12,8.20
2015,11,17,04,13,8.20
2015,11,17,04,14,8.20
2015,11,17,04,15,8.20
2015,11,17,04,16,8.20
2015,11,17,04,17,8.20
2015,11,17,04,18,8.20
2015,11,17,04,19,8.20
2015,11,17,04,20,8.20
2015,11,17,04,21,8.20
2015,11,17,04,22,8.20
2015,11,17,04,23,8.20
2015,11,17,04,24,8.20
2015,11,17,04,25,8.20
2015,11,17,04,26,8.20
2015,11,17,04,27,8.20
2015,11,17,04,28,8.20
2015,11,17,04,29,8.20
2015,11,17,04,30,8.20
2015,11,17,04,31,8.20
2015,11,17,04,32,8.20
2015,11,17,04,33,8.20
2015,11,17,04,34,8.20
2015,11,17,04,35,8.20
2015,11,17,04,36,8.20
2015,11,17,04,37,8.20
2015,11,17,04,38,8.20
2015,11,17,04,39,8.20
2015,11,17,04,40,8.20
2015,11,17,04,41,8.20
2015,11,17,04,42,8.20
2015,11,17,04,43,8.20
2015,11,17,04,44,8.20
2015,11,17,04,45,8.10
2015,11,17,04,46,8.10
2015,11,17,04,47,8.10
2015,11,17,04,48,8.10
2015,11,17,04,49,8.10
2015,11,17,04,50,8.10
2015,11,17,04,51,8.10
2015,11,17,04,52,8.10
2015,11,17,04,53,8.10
2015,11,17,04,54,8.10
2015,11,17,04,55,8.10
2015,11,17,04,56,8.10
2015,11,17,04,57,8.10
2015,11,17,04,58,8.10
2015,11,17,04,59,8.10
2015,11,17,05,00,8.10
2015,11,17,05,01,8.10
2015,11,17,05,02,8.10
2015,11,17,05,03,8.10
2015,11,17,05,04,8.10
2015,11,17,05,05,8.10
2015,11,17,05,06,8.10
2015,11,17,05,07,8.10
2015,11,17,05,08,8.10
2015,11,17,05,09,8.10
2015,11,17,05,10,8.10
2015,11,17,05,11,8.10
2015,11,17,05,12,8.10
2015,11,17,05,13,8.10
2015,11,17,05,14,8.10
2015,11,17,05,15,8.10
2015,11,17,05,16,8.10
2015,11,17,05,17,8.10
2015,11,17,05,18,8.10
2015,11,17,05,19,8.10
2015,11,17,05,20,8.10
2015,11,17,05,21,8.10
2015,11,17,05,22,8.10
2015,11,17,05,23,8.10
2015,11,17,05,24,8.10
2015,11,17,05,25,8.20
2015,11,17,05,26,8.20
2015,11,17,05,27,8.20
2015,11,17,05,28,8.20
2015,11,17,05,29,8.30
2015,11,17,05,30,8.30
2015,11,17,05,31,8.30
2015,11,17,05,32,8.30
2015,11,17,05,33,8.30
2015,11,17,05,34,8.30
2015,11,17,05,35,8.30
2015,11,17,05,36,8.40
2015,11,17,05,37,8.40
2015,11,17,05,38,8.40
2015,11,17,05,39,8.40
2015,11,17,05,40,8.40
2015,11,17,05,41,8.40
2015,11,17,05,42,8.40
2015,11,17,05,43,8.40
2015,11,17,05,44,8.50
2015,11,17,05,45,8.50
2015,11,17,05,46,8.50
2015,11,17,05,47,8.50
2015,11,17,05,48,8.60
2015,11,17,05,49,8.60
2015,11,17,05,50,8.60
2015,11,17,05,51,8.70
2015,11,17,05,52,8.70
2015,11,17,05,53,8.80
2015,11,17,05,54,8.90
2015,11,17,05,55,9.00
2015,11,17,05,56,9.10
2015,11,17,05,57,9.20
2015,11,17,05,58,9.30
2015,11,17,05,59,9.30
2015,11,17,06,00,9.40
2015,11,17,06,01,9.50
2015,11,17,06,02,9.50
2015,11,17,06,03,9.50
2015,11,17,06,04,9.60
2015,11,17,06,05,9.60
2015,11,17,06,06,9.70
2015,11,17,06,07,9.90
2015,11,17,06,08,10.10
2015,11,17,06,09,10.40
2015,11,17,06,10,10.60
2015,11,17,06,11,10.80
2015,11,17,06,12,11.00
2015,11,17,06,13,11.20
2015,11,17,06,14,11.40
2015,11,17,06,15,11.50
2015,11,17,06,16,11.60
2015,11,17,06,17,11.70
2015,11,17,06,18,11.80
2015,11,17,06,19,12.00
2015,11,17,06,20,12.10
2015,11,17,06,21,12.20
2015,11,17,06,22,12.20
2015,11,17,06,23,12.30
2015,11,17,06,24,12.30
2015,11,17,06,25,12.40
2015,11,17,06,26,12.40
2015,11,17,06,27,12.40
2015,11,17,06,28,12.50
2015,11,17,06,29,12.50
2015,11,17,06,30,12.60
2015,11,17,06,31,12.60
2015,11,17,06,32,12.60
2015,11,17,06,33,12.60
2015,11,17,06,34,12.70
2015,11,17,06,35,12.70
2015,11,17,06,36,12.70
2015,11,17,06,37,12.70
2015,11,17,06,38,12.70
2015,11,17,06,39,12.70
2015,11,17,06,40,12.70
2015,11,17,06,41,12.70
2015,11,17,06,42,12.70
2015,11,17,06,43,12.80
2015,11,17,06,44,12.80
2015,11,17,06,45,12.80
2015,11,17,06,46,12.80
2015,11,17,06,47,12.70
2015,11,17,06,48,12.70
2015,11,17,06,49,12.70
2015,11,17,06,50,12.70
2015,11,17,06,51,12.70
2015,11,17,06,52,12.70
2015,11,17,06,53,12.70
2015,11,17,06,54,12.70
2015,11,17,06,55,12.70
2015,11,17,06,56,12.70
2015,11,17,06,57,12.70
2015,11,17,06,58,12.70
2015,11,17,06,59,12.70
2015,11,17,07,00,12.70
2015,11,17,07,01,12.70
2015,11,17,07,02,12.70
2015,11,17,07,03,12.70
2015,11,17,07,04,12.70
2015,11,17,07,05,12.60
2015,11,17,07,06,12.60
2015,11,17,07,07,12.60
2015,11,17,07,08,12.60
2015,11,17,07,09,12.60
2015,11,17,07,10,12.60
2015,11,17,07,11,12.60
2015,11,17,07,12,12.50
2015,11,17,07,13,12.50
2015,11,17,07,14,12.50
2015,11,17,07,15,12.50
2015,11,17,07,16,12.50
2015,11,17,07,17,12.50
2015,11,17,07,18,12.50
2015,11,17,07,19,12.50
2015,11,17,07,20,12.50
2015,11,17,07,21,12.50
2015,11,17,07,22,12.50
2015,11,17,07,23,12.50
2015,11,17,07,24,12.50
2015,11,17,07,25,12.50
2015,11,17,07,26,12.60
2015,11,17,07,27,12.60
2015,11,17,07,28,12.60
2015,11,17,07,29,12.60
2015,11,17,07,30,12.60
2015,11,17,07,31,12.60
2015,11,17,07,32,12.60
2015,11,17,07,33,12.60
2015,11,17,07,34,12.60
2015,11,17,07,35,12.60
2015,11,17,07,36,12.60
2015,11,17,07,37,12.60
2015,11,17,07,38,12.60
2015,11,17,07,39,12.60
2015,11,17,07,40,12.60
2015,11,17,07,41,12.60
2015,11,17,07,42,12.60
2015,11,17,07,43,12.60
2015,11,17,07,44,12.60
2015,11,17,07,45,12.70
2015,11,17,07,46,12.70
2015,11,17,07,47,12.70
2015,11,17,07,48,12.80
2015,11,17,07,49,12.80
2015,11,17,07,50,12.80
2015,11,17,07,51,12.80
2015,11,17,07,52,12.80
2015,11,17,07,53,12.80
2015,11,17,07,54,12.80
2015,11,17,07,55,12.80
2015,11,17,07,56,12.70
2015,11,17,07,57,12.80
2015,11,17,07,58,12.80
2015,11,17,07,59,12.80
2015,11,17,08,00,12.70
2015,11,17,08,01,12.80
2015,11,17,08,02,12.70
2015,11,17,08,03,12.70
2015,11,17,08,04,12.70
2015,11,17,08,05,12.70
2015,11,17,08,06,12.70
2015,11,17,08,07,12.70
2015,11,17,08,08,12.70
2015,11,17,08,09,12.70
2015,11,17,08,10,12.70
2015,11,17,08,11,12.70
2015,11,17,08,12,12.70
2015,11,17,08,13,12.70
2015,11,17,08,14,12.70
2015,11,17,08,15,12.70
2015,11,17,08,16,12.70
2015,11,17,08,17,12.70
2015,11,17,08,18,12.70
2015,11,17,08,19,12.70
2015,11,17,08,20,12.70
2015,11,17,08,21,12.70
2015,11,17,08,22,12.70
2015,11,17,08,23,12.70
2015,11,17,08,24,12.80
2015,11,17,08,25,12.80
2015,11,17,08,26,12.80
2015,11,17,08,27,12.80
2015,11,17,08,28,12.80
2015,11,17,08,29,12.80
2015,11,17,08,30,12.80
2015,11,17,08,31,12.80
2015,11,17,08,32,12.80
2015,11,17,08,33,12.80
2015,11,17,08,34,12.80
2015,11,17,08,35,12.80
2015,11,17,08,36,12.90
2015,11,17,08,37,12.90
2015,11,17,08,38,12.90
2015,11,17,08,39,12.90
2015,11,17,08,40,12.90
2015,11,17,08,41,12.90
2015,11,17,08,42,13.00
2015,11,17,08,43,13.00
2015,11,17,08,44,13.00
2015,11,17,08,45,13.10
2015,11,17,08,46,13.10
2015,11,17,08,47,13.10
2015,11,17,08,48,13.10
2015,11,17,08,49,13.10
2015,11,17,08,50,13.10
2015,11,17,08,51,13.10
2015,11,17,08,52,13.10
2015,11,17,08,53,13.10
2015,11,17,08,54,13.10
2015,11,17,08,55,13.20
2015,11,17,08,56,13.20
2015,11,17,08,57,13.20
2015,11,17,08,58,13.20
2015,11,17,08,59,13.20
2015,11,17,09,00,13.20
2015,11,17,09,01,13.20
2015,11,17,09,02,13.20
2015,11,17,09,03,13.20
2015,11,17,09,04,13.20
2015,11,17,09,05,13.20
2015,11,17,09,06,13.20
2015,11,17,09,07,13.20
2015,11,17,09,08,13.20
2015,11,17,09,09,13.30
2015,11,17,09,10,13.30
2015,11,17,09,11,13.30
2015,11,17,09,12,13.30
2015,11,17,09,13,13.30
2015,11,17,09,14,13.30
2015,11,17,09,15,13.30
2015,11,17,09,16,13.30
2015,11,17,09,17,13.30
2015,11,17,09,18,13.30
2015,11,17,09,19,13.30
2015,11,17,09,20,13.30
2015,11,17,09,21,13.30
2015,11,17,09,22,13.30
2015,11,17,09,23,13.30
2015,11,17,09,24,13.30
2015,11,17,09,25,13.30
2015,11,17,09,26,13.30
2015,11,17,09,27,13.30
2015,11,17,09,28,13.30
2015,11,17,09,29,13.30
2015,11,17,09,30,13.30
2015,11,17,09,31,13.30
2015,11,17,09,32,13.30
2015,11,17,09,33,13.30
2015,11,17,09,34,13.30
2015,11,17,09,35,13.30
2015,11,17,09,36,13.30
2015,11,17,09,37,13.30
2015,11,17,09,38,13.30
2015,11,17,09,39,13.30
2015,11,17,09,40,13.30
2015,11,17,09,41,13.30
2015,11,17,09,42,13.30
2015,11,17,09,43,13.30
2015,11,17,09,44,13.30
2015,11,17,09,45,13.40
2015,11,17,09,46,13.40
2015,11,17,09,47,13.40
2015,11,17,09,48,13.40
2015,11,17,09,49,13.40
2015,11,17,09,50,13.40
2015,11,17,09,51,13.40
2015,11,17,09,52,13.50
2015,11,17,09,53,13.50
2015,11,17,09,54,13.50
2015,11,17,09,55,13.60
2015,11,17,09,56,13.60
2015,11,17,09,57,13.60
2015,11,17,09,58,13.60
2015,11,17,09,59,13.60
2015,11,17,10,00,13.60
2015,11,17,10,01,13.60
2015,11,17,10,02,13.60
2015,11,17,10,03,13.60
2015,11,17,10,04,13.60
2015,11,17,10,05,13.70
2015,11,17,10,06,13.70
2015,11,17,10,07,13.70
2015,11,17,10,08,13.70
2015,11,17,10,09,13.70
2015,11,17,10,10,13.70
2015,11,17,10,11,13.70
2015,11,17,10,12,13.70
2015,11,17,10,13,13.70
2015,11,17,10,14,13.70
2015,11,17,10,15,13.70
2015,11,17,10,16,13.60
2015,11,17,10,17,13.60
2015,11,17,10,18,13.70
2015,11,17,10,19,13.70
2015,11,17,10,20,13.70
2015,11,17,10,21,13.70
2015,11,17,10,22,13.70
2015,11,17,10,23,13.70
2015,11,17,10,24,13.70
2015,11,17,10,25,13.70
2015,11,17,10,26,13.70
2015,11,17,10,27,13.70
2015,11,17,10,28,13.70
2015,11,17,10,29,13.70
2015,11,17,10,30,13.70
2015,11,17,10,31,13.70
2015,11,17,10,32,13.70
2015,11,17,10,33,13.70
2015,11,17,10,34,13.70
2015,11,17,10,35,13.70
2015,11,17,10,36,13.70
2015,11,17,10,37,13.70
2015,11,17,10,38,13.70
2015,11,17,10,39,13.70
2015,11,17,10,40,13.70
2015,11,17,10,41,13.70
2015,11,17,10,42,13.70
2015,11,17,10,43,13.70
2015,11,17,10,44,13.80
2015,11,17,10,45,13.80
2015,11,17,10,46,13.80
2015,11,17,10,47,13.70
2015,11,17,10,48,13.70
2015,11,17,10,49,13.70
2015,11,17,10,50,13.70
2015,11,17,10,51,13.70
2015,11,17,10,52,13.70
2015,11,17,10,53,13.70
2015,11,17,10,54,13.70
2015,11,17,10,55,13.70
2015,11,17,10,56,13.70
2015,11,17,10,57,13.70
2015,11,17,10,58,13.70
2015,11,17,10,59,13.70
2015,11,17,11,00,13.70
2015,11,17,11,01,13.70
2015,11,17,11,02,13.70
2015,11,17,11,03,13.70
2015,11,17,11,04,13.70
2015,11,17,11,05,13.70
2015,11,17,11,06,13.70
2015,11,17,11,07,13.70
2015,11,17,11,08,13.70
2015,11,17,11,09,13.70
2015,11,17,11,10,13.70
2015,11,17,11,11,13.70
2015,11,17,11,12,13.70
2015,11,17,11,13,13.70
2015,11,17,11,14,13.70
2015,11,17,11,15,13.70
2015,11,17,11,16,13.70
2015,11,17,11,17,13.70
2015,11,17,11,18,13.70
2015,11,17,11,19,13.70
2015,11,17,11,20,13.70
2015,11,17,11,21,13.70
2015,11,17,11,22,13.70
2015,11,17,11,23,13.80
2015,11,17,11,24,13.80
2015,11,17,11,25,13.70
2015,11,17,11,26,13.70
2015,11,17,11,27,13.80
2015,11,17,11,28,13.80
2015,11,17,11,29,13.80
2015,11,17,11,30,13.80
2015,11,17,11,31,13.80
2015,11,17,11,32,13.80
2015,11,17,11,33,13.70
2015,11,17,11,34,13.70
2015,11,17,11,35,13.70
2015,11,17,11,36,13.70
2015,11,17,11,37,13.70
2015,11,17,11,38,13.70
2015,11,17,11,39,13.70
2015,11,17,11,40,13.70
2015,11,17,11,41,13.70
2015,11,17,11,42,13.70
2015,11,17,11,43,13.70
2015,11,17,11,44,13.70
2015,11,17,11,45,13.70
2015,11,17,11,46,13.70
2015,11,17,11,47,13.70
2015,11,17,11,48,13.70
2015,11,17,11,49,13.70
2015,11,17,11,50,13.70
2015,11,17,11,51,13.70
2015,11,17,11,52,13.70
2015,11,17,11,53,13.70
